This demonstration page uses our WeatherBlox Daily Observations layout. Learn more.

Left ArrowRight Arrow

39.29038, -76.61219

Hourly Observations for November 30, 2022

Temp ( °F °C ) Dew Point ( °F °C ) Humidity (%) Winds ( mph kmh ) Pressure ( in mb ) Visibility ( mi km ) Precip ( " mm )
12:54 am 00:54 Cloudy 43 6.1 39 3.9 86 86 E 3 6 30.14 1021 10 16 0.00 0.00
1:54 am 01:54 Cloudy 44 6.7 41 5 89 89 Calm 30.11 1020 10 16 0.00 0.00
2:54 am 02:54 Cloudy 47 8.3 43 6.1 86 86 Calm 30.10 1019 10 16 0.00 0.00
3:54 am 03:54 Cloudy 47 8.3 43 6.1 86 86 ESE 5 7 30.08 1019 10 16 0.00 0.00
4:28 am 04:28 Cloudy 48 8.9 45 7.2 89 89 SE 6 9 30.06 1018 10 16 0.00 0.00
4:54 am 04:54 Cloudy 49 9.4 45 7.2 86 86 SE 5 7 30.04 1017 10 16 0.00 0.00
5:54 am 05:54 Cloudy with Light Rain 50 10 46 7.8 86 86 SSE 5 7 30.02 1017 9 14 0.01 0.13
6:09 am 06:09 Cloudy with Light Rain 50 10 47 8.3 89 89 VRB 5 7 30.02 1017 7 11 0.01 0.13
6:54 am 06:54 Cloudy with Light Rain 50 10 48 8.9 93 93 SSE 5 7 30.01 1016 7 11 0.04 1.02
6:59 am 06:59 Cloudy with Light Rain 50 10 48 8.9 93 93 S 3 6 30.01 1016 6 10 0.01 0.13
7:42 am 07:42 Cloudy with Light Rain 50 10 48 8.9 93 93 S 6 9 29.99 1016 4 6 0.06 1.52
7:54 am 07:54 Cloudy with Light Rain 50 10 49 9.4 96 96 VRB 5 7 29.99 1016 3 5 0.08 2.03
8:54 am 08:54 Cloudy with Light Rain 51 10.6 50 10 96 96 S 10 17 29.95 1014 4 6 0.08 2.03
9:15 am 09:15 Cloudy with Light Rain 52 11.1 50 10 93 93 S 8 13 29.94 1014 6 10 0.01 0.25
9:54 am 09:54 Cloudy with Light Rain 52 11.1 50 10 93 93 S 10 17 29.91 1013 6 10 0.03 0.76
10:54 am 10:54 Cloudy with Light Rain 54 12.2 50 10 86 86 S 5 7 29.83 1010 7 11 0.01 0.25
11:05 am 11:05 Cloudy with Light Rain 54 12.2 51 10.6 90 90 SW 9 15 29.86 1011 7 11 0.01 0.13
11:54 am 11:54 Cloudy 55 12.8 51 10.6 86 86 S 14 22 29.80 1009 7 11 0.02 0.51
12:54 pm 12:54 Cloudy 57 13.9 51 10.6 80 80 S 10 17 29.76 1008 10 16 0.00 0.00
1:54 pm 13:54 Cloudy 57 13.9 52 11.1 83 83 SSW 12 19 29.74 1007 10 16 0.00 0.00
2:54 pm 14:54 Mostly Cloudy 59 15 53 11.7 81 81 SSW 12 19 29.72 1006 10 16 0.01 0.13
3:39 pm 15:39 Cloudy with Light Rain 57 13.9 52 11.1 83 83 WNW 28 44 29.77 1008 10 16 0.01 0.13
3:54 pm 15:54 Mostly Cloudy with Light Rain 55 12.8 47 8.3 74 74 W 17 28 29.79 1009 10 16 0.01 0.13
4:54 pm 16:54 Mostly Cloudy 55 12.8 32 0 41 41 WNW 20 31 29.82 1010 10 16 0.01 0.13
5:54 pm 17:54 Partly Cloudy 53 11.7 25 -3.9 33 33 WNW 18 30 29.88 1012 10 16 0.01 0.13
6:54 pm 18:54 Mostly Clear 49 9.4 24 -4.4 37 37 WNW 14 22 29.92 1013 10 16 0.00 0.00
7:54 pm 19:54 Clear 47 8.3 16 -8.9 28 28 WNW 22 35 29.94 1014 10 16 0.01 0.13
8:54 pm 20:54 Clear 46 7.8 18 -7.8 32 32 WNW 17 28 29.98 1015 10 16 0.00 0.00
9:54 pm 21:54 Clear 44 6.7 17 -8.3 33 33 WNW 17 28 30.02 1017 10 16 0.00 0.00
10:54 pm 22:54 Clear 42 5.6 17 -8.3 36 36 WNW 23 37 30.03 1017 10 16 0.00 0.00
11:54 pm 23:54 Clear 40 4.4 18 -7.8 41 41 WNW 10 17 30.06 1018 10 16 0.00 0.00

Powered by AerisWeather